User: anonymous   Login
Location: Leeds
(37.2390°N, 113.3580°W)
Time: 12:12:45
(UTC-07:00)
Language:

SL-08 RB Rocket - Orbit

View from above orbital plane
View from above orbital plane
View from above satellite
View from above satellite

Ground track
Ground track

The orbit data is extracted from the following two-line orbital elements,

1 26387U 00033D   16041.76825350  .00000408  00000-0  79093-4 0  9994
2 26387  98.0336 110.8405 0027931 100.7908  10.3775 14.68089695835626
Epoch (UTC): 10 February 2016 18:26:17
Eccentricity: 0.0027931
inclination: 98.0336°
perigee height: 647 km
apogee height: 687 km
right ascension of ascending node: 110.8405°
argument of perigee: 100.7908°
revolutions per day: 14.68089695
mean anomaly at epoch: 10.3775°
orbit number at epoch: 83562

The dashed part of the orbit path shows where the satellite is in the earth's shadow,  

DLR